COSMOS 252 DEB, 3843

Orbit data source: Space-Track

COSMOS 252 DEB, 3843 is space debris in LEO originally from a launch on Fri, 01 Nov 1968 UTC launched from the Tyuratam Missile And Space Complex (TTMTR). Debris objects in space refer to the collection of defunct objects orbiting the Earth. Examples of debris include non-operational satellites, rocket bodies, and fragments generated from explosions, collisions, or faulty payload assembly.

Loading next visibility...
Identifier
3843, 1968-097BG
Orbit
LEO
Country
Flag of CISCIS
Related business
Manufacturer
Unknown
Mission
Spacecraft
Bus & Motor
Unknown
Mass
Unknown
Launch date (UTC)
1968-11-01 (58 years ago)
Launch vehicle
Unknown
Launch site
Tyuratam Missile And Space Complex (TTMTR)
Object type
Payload
Rocket body
Debris
Shape & HBR
Unknown shape, 0.1 m
Radar Cross Section
Medium (>0.1 m² and <1 m²)

Expand to show TLE details & history
Last TLE update: 10 hours ago

TLE from 10 hours ago
0 COSMOS 252 DEB
1 03843U 68097BG  26175.05841791  .00001713  00000-0  17413-2 0  9994
2 03843  62.2623  80.9731 0694136 110.9373 256.7308 13.04421909668219
Epoch: 2026-06-24T01:24Z
TLE epoch observation values (Epoch: 2026-06-24T01:24:07.307Z)
Latitude
-0.00004°
Longitude
147.72155°
Altitude
1,401.815 km
Speed
7.086 km/s
True Right ascension
05h 23m 53s
True Declination
0° 00' 00"
Sunlit
Object was in daylight at epoch
Visualization orbit readout
Latitude
Unknown
Longitude
Unknown
Altitude
Unknown
Speed
Unknown
Apparent Right ascension
Unknown
Apparent Declination
Unknown
Sunlit
N/A
Visualization observer readout
Local Sidereal Time
22:41:39
Azimuth
Unknown
Elevation
Unknown
Doppler factor
Unknown
Orbital elements
Apogee altitude
1,772.866 km
Perigee altitude
714.734 km
Semi-major axis
7,621.937 km
Eccentricity
0.06941
Inclination
62.2623°
RAAN
80.9731°
Arg. of periapsis
110.9373°
True anomaly
249.16224°
Mean anomaly
256.7308°
Eccentric anomaly
252.92892°
Mean motion
3.26171 °/min
Orbital period
110.37 mins
BSTAR
0.0017413
Loading maneuver chart data...
Computing Atmospheric mass density...
Loading historical data...
Loading historical data...
Loading historical data...
Loading historical data...
Loading historical data...
Loading historical data...
Loading historical data...

Documentation

Showing up to 5 results
|